Weather History for Midland, TX

Change the Weather History Date:

Friday, March 29, 2013

  Actual Average Record
Temperature  
Mean Temperature 68 °F 59 °F  
Max Temperature 80 °F 74 °F 95 °F (1963)
Min Temperature 55 °F 44 °F 18 °F (1944)
Degree Days  
Heating Degree Days 0 7  
Month to date heating degree days 238 294  
Since 1 July heating degree days 2210 2531  
Cooling Degree Days 3 1  
Month to date cooling degree days 27 12  
Year to date cooling degree days 27 14  
Growing Degree Days 18 (Base 50)    
Moisture  
Dew Point 53 °F    
Average Humidity 64    
Maximum Humidity 93    
Minimum Humidity 35    
Precipitation  
Precipitation T in 0.02 in 0.49 in (2002)
Month to date precipitation T 0.56  
Year to date precipitation 1.53 1.83  
Snow  
Snow 0.00 in - - ()
Month to date snowfall 0.0  
Since 1 July snowfall 1.0  
Snow Depth 0.00 in    
Sea Level Pressure  
Sea Level Pressure 29.95 in    
Wind  
Wind Speed 11 mph (South)    
Max Wind Speed 26 mph    
Max Gust Speed 36 mph    
Visibility 10 miles    
Events Rain , Thunderstorm    
T = Trace of Precipitation, MM = Missing Value Source: NWS Daily Summary

Daily Weather History Graph

Daily Weather History Graph

Search for Another Location

Airport:

Trip Planner

Search our weather history database for the weather conditions in past years. The results will help you decide how hot, cold, wet, or windy it might be!

Date:

Astronomy

Mar. 29, 2013 Rise Set
Actual Time 7:40 AM CDT 8:06 PM CDT
Civil Twilight 7:16 AM CDT 8:31 PM CDT
Nautical Twilight 6:47 AM CDT 9:00 PM CDT
Astronomical Twilight 6:18 AM CDT 9:29 PM CDT
Moon 10:56 PM CDT (3/29) 9:01 AM CDT (3/29)
Length of Visible Light 13h 15m
Length of Day
12h 26m
Waning Gibbous, 93% of the Moon is Illuminated
Mar 29
Waning Gibbous
Apr 2
Last Quarter
Apr 10
New
Apr 18
First Quarter
Apr 25
Full

Hourly Weather History & Observations

Time (CDT) Temp. Dew Point Humidity Pressure Visibility Wind Dir Wind Speed Gust Speed Precip Events Conditions
12:53 AM 62.1 °F 53.1 °F 72% 29.99 in 10.0 mi South 17.3 mph - N/A   Clear
1:53 AM 60.1 °F 53.1 °F 78% 29.98 in 10.0 mi South 17.3 mph - N/A   Clear
2:53 AM 59.0 °F 52.0 °F 78% 29.97 in 10.0 mi South 12.7 mph - N/A   Clear
3:53 AM 57.9 °F 52.0 °F 81% 29.95 in 10.0 mi South 12.7 mph - N/A   Clear
4:53 AM 57.9 °F 53.1 °F 84% 29.93 in 10.0 mi South 13.8 mph - N/A   Clear
5:53 AM 57.9 °F 54.0 °F 87% 29.94 in 10.0 mi South 13.8 mph - N/A   Clear
6:53 AM 57.0 °F 54.0 °F 89% 29.95 in 10.0 mi South 8.1 mph - N/A   Clear
7:53 AM 55.0 °F 53.1 °F 93% 29.97 in 6.0 mi SSE 8.1 mph - N/A   Clear
8:53 AM 57.0 °F 54.0 °F 89% 30.00 in 5.0 mi South 6.9 mph - N/A   Partly Cloudy
9:53 AM 62.1 °F 55.9 °F 80% 30.00 in 10.0 mi South 12.7 mph - N/A   Clear
10:53 AM 66.0 °F 55.9 °F 70% 30.01 in 10.0 mi South 8.1 mph - N/A   Clear
11:53 AM 69.1 °F 55.0 °F 61% 29.99 in 10.0 mi SSW 8.1 mph - N/A   Clear
12:53 PM 72.0 °F 55.0 °F 55% 29.97 in 10.0 mi SSW 6.9 mph - N/A   Clear
1:53 PM 75.9 °F 52.0 °F 43% 29.95 in 10.0 mi SW 11.5 mph - N/A   Clear
2:53 PM 75.9 °F 52.0 °F 43% 29.94 in 10.0 mi Variable 3.5 mph - N/A   Scattered Clouds
3:53 PM 78.1 °F 48.9 °F 36% 29.92 in 10.0 mi Calm Calm - N/A   Clear
4:53 PM 79.0 °F 50.0 °F 36% 29.89 in 10.0 mi Variable 4.6 mph - N/A   Clear
5:53 PM 80.1 °F 50.0 °F 35% 29.88 in 10.0 mi SE 9.2 mph - N/A   Clear
6:53 PM 77.0 °F 52.0 °F 42% 29.88 in 10.0 mi SSE 18.4 mph - N/A   Clear
7:53 PM 73.0 °F 50.0 °F 44% 29.89 in 10.0 mi SSE 17.3 mph - N/A   Clear
8:53 PM 69.1 °F 52.0 °F 54% 29.91 in 10.0 mi South 13.8 mph - N/A   Partly Cloudy
9:53 PM 68.0 °F 54.0 °F 61% 29.95 in 10.0 mi South 12.7 mph 23.0 mph 0.00 in Rain Light Rain
10:22 PM 66.2 °F 53.6 °F 64% 30.01 in 10.0 mi South 19.6 mph - 0.00 in Thunderstorm Clear
10:37 PM 66.2 °F 51.8 °F 60% 30.03 in 10.0 mi South 16.1 mph 25.3 mph 0.00 in   Clear
10:53 PM 64.9 °F 55.0 °F 70% 29.94 in 10.0 mi South 18.4 mph - 0.00 in   Clear
11:53 PM 64.0 °F 55.0 °F 73% 29.95 in 10.0 mi South 17.3 mph - N/A   Clear